EA3HZM Weather Reports


time (UTC)temp
C
wind
direction
speed
KPH
gust
KPH
rain 1hr
cm
rain 24hr
cm
rain mn
cm
humidity
%
barometer
mb
20190421125503 18 83 12.9 17.7 0.00 0.66 0.20 41 1008.1
20190421125004 18 93 12.9 16.1 0.00 0.66 0.20 42 1008.1
20190421124504 18 105 12.9 20.9 0.00 0.66 0.20 41 1008.1
20190421124004 18 106 20.9 24.1 0.00 0.66 0.20 42 1008.1
20190421123504 18 99 9.7 24.1 0.00 0.66 0.20 42 1008.1
20190421123004 18 99 3.2 17.7 0.00 0.66 0.20 42 1008.1
20190421122504 18 91 6.4 17.7 0.00 0.66 0.20 42 1009.1
20190421122004 18 80 12.9 20.9 0.00 0.66 0.20 42 1009.1
20190421121504 18 99 14.5 25.7 0.00 0.66 0.20 41 1009.1
20190421121004 18 104 20.9 25.7 0.00 0.66 0.20 41 1009.1
20190421120504 18 97 6.4 20.9 0.00 0.66 0.20 41 1009.1
20190421120005 18 90 14.5 16.1 0.00 0.66 0.20 42 1009.1
20190421115504 18 76 8.0 17.7 0.00 0.66 0.20 42 1009.1
20190421115004 18 32 14.5 17.7 0.00 0.66 0.20 42 1009.1
20190421114504 17 31 8.0 20.9 0.00 0.66 0.20 42 1009.1
20190421114004 17 63 12.9 20.9 0.00 0.66 0.20 43 1009.1
20190421113504 17 93 11.3 20.9 0.00 0.66 0.20 43 1009.1
20190421113004 17 97 14.5 20.9 0.00 0.66 0.20 43 1009.1
20190421112505 17 95 9.7 22.5 0.00 0.66 0.20 43 1009.1
20190421112005 17 82 4.8 22.5 0.00 0.66 0.20 44 1009.1
20190421111505 17 74 20.9 20.9 0.00 0.66 0.20 44 1009.1
20190421111006 17 77 9.7 20.9 0.00 0.66 0.20 45 1009.1
20190421110504 17 87 14.5 24.1 0.00 0.66 0.20 45 1009.1
20190421110005 17 88 9.7 24.1 0.00 0.66 0.20 45 1009.1
20190421105504 17 93 6.4 24.1 0.00 0.66 0.20 46 1010.1
20190421105004 16 91 9.7 24.1 0.00 0.66 0.20 46 1010.1
20190421104504 16 86 16.1 19.3 0.00 0.66 0.20 46 1010.1
20190421104004 16 95 9.7 24.1 0.00 0.66 0.20 47 1010.1
20190421103504 16 91 22.5 24.1 0.00 0.66 0.20 47 1010.1
20190421103005 16 34 12.9 14.5 0.00 0.66 0.20 47 1010.1
20190421102504 16 66 8.0 30.6 0.00 0.66 0.20 47 1010.1
20190421102005 16 77 9.7 30.6 0.00 0.66 0.20 48 1010.1
20190421101505 16 55 9.7 16.1 0.00 0.66 0.20 47 1010.1
20190421101005 16 45 16.1 16.1 0.00 0.66 0.20 48 1010.1
20190421100504 16 62 4.8 14.5 0.00 0.66 0.20 49 1010.1
20190421100006 16 63 11.3 19.3 0.00 0.66 0.20 49 1010.1
20190421095504 16 87 8.0 19.3 0.00 0.66 0.20 50 1010.1
20190421095004 17 69 19.3 19.3 0.00 0.66 0.20 49 1010.1
20190421094504 17 70 6.4 20.9 0.00 0.66 0.20 49 1010.1
20190421094004 16 85 6.4 20.9 0.00 0.66 0.20 50 1010.1
20190421093504 16 92 17.7 20.9 0.00 0.66 0.20 51 1010.1
20190421093005 17 105 4.8 14.5 0.00 0.66 0.20 51 1010.1
20190421092505 16 107 12.9 17.7 0.00 0.66 0.20 51 1010.1
20190421092004 16 95 14.5 17.7 0.00 0.66 0.20 52 1010.1
20190421091004 16 91 17.7 19.3 0.00 0.66 0.20 52 1010.1
20190421090504 16 95 9.7 19.3 0.00 0.66 0.20 51 1010.1
20190421090007 16 88 6.4 24.1 0.00 0.66 0.20 51 1010.1
20190421085505 16 83 24.1 24.1 0.00 0.66 0.20 50 1010.1
20190421085004 16 82 8.0 17.7 0.00 0.66 0.20 51 1010.1
20190421084504 16 80 4.8 19.3 0.00 0.66 0.20 50 1010.1
20190421084004 16 104 4.8 20.9 0.00 0.66 0.20 50 1010.1
20190421083504 16 56 20.9 20.9 0.00 0.66 0.20 49 1010.1
20190421083004 16 23 9.7 17.7 0.00 0.66 0.20 50 1010.1
20190421082504 16 62 9.7 17.7 0.00 0.66 0.20 51 1010.1
20190421082004 16 83 17.7 17.7 0.00 0.66 0.20 52 1010.1
20190421081504 16 80 12.9 16.1 0.00 0.66 0.20 52 1010.1
20190421081004 16 353 4.8 16.1 0.00 0.66 0.20 52 1010.1
20190421080504 16 21 14.5 14.5 0.00 0.66 0.20 51 1010.1
20190421080005 16 71 11.3 14.5 0.00 0.66 0.20 51 1010.1
20190421075505 16 89 11.3 16.1 0.00 0.66 0.20 51 1010.1
20190421075004 16 88 16.1 24.1 0.00 0.66 0.20 51 1010.1
20190421074504 16 79 9.7 24.1 0.00 0.66 0.20 51 1010.1
20190421073504 16 72 6.4 17.7 0.00 0.66 0.20 50 1010.1
20190421073004 16 79 9.7 24.1 0.00 0.66 0.20 49 1010.1
20190421072505 16 85 24.1 24.1 0.00 0.66 0.20 49 1010.1
20190421072005 16 62 9.7 9.7 0.00 0.66 0.20 48 1010.1
20190421071504 16 40 9.7 17.7 0.00 0.66 0.20 48 1010.1
20190421071004 16 47 9.7 17.7 0.00 0.66 0.20 48 1010.1
20190421070504 16 39 11.3 20.9 0.00 0.66 0.20 47 1010.1
20190421070004 16 23 14.5 20.9 0.00 0.66 0.20 47 1010.1
20190421065504 16 54 9.7 16.1 0.00 0.66 0.20 47 1010.1
20190421065004 16 60 11.3 17.7 0.00 0.66 0.20 47 1010.1
20190421064504 15 14 9.7 17.7 0.00 0.66 0.20 47 1010.1
20190421064005 15 353 17.7 17.7 0.00 0.66 0.20 46 1010.1
20190421063504 15 336 4.8 16.1 0.00 0.66 0.20 46 1010.1
20190421063005 15 338 11.3 17.7 0.00 0.66 0.20 46 1010.1
20190421062504 15 355 17.7 17.7 0.20 0.66 0.20 46 1010.1
20190421062004 15 353 3.2 14.5 0.20 0.66 0.20 46 1010.1
20190421061505 15 345 9.7 16.1 0.20 0.66 0.20 46 1010.1
20190421061004 15 343 8.0 16.1 0.20 0.66 0.20 46 1010.1
20190421060504 15 318 3.2 12.9 0.20 0.66 0.20 46 1010.1
20190421060004 15 330 12.9 16.1 0.20 0.66 0.20 46 1010.1
20190421055504 15 4 6.4 17.7 0.20 0.66 0.20 46 1010.1
20190421055004 15 40 9.7 17.7 0.20 0.66 0.20 46 1010.1
20190421054504 15 23 4.8 16.1 0.20 0.66 0.20 46 1010.1
20190421054004 15 3 6.4 19.3 0.20 0.66 0.20 47 1010.1
20190421053504 15 352 19.3 22.5 0.20 0.66 0.20 47 1010.1
20190421053005 15 346 12.9 22.5 0.20 0.66 0.20 47 1010.1
20190421052504 15 5 19.3 20.9 0.00 0.46 0.00 47 1010.1
20190421052006 15 5 9.7 20.9 0.00 0.46 0.00 47 1010.1
20190421051504 15 341 4.8 22.5 0.00 0.46 0.00 47 1010.1
20190421051004 15 351 9.7 22.5 0.00 0.46 0.00 47 1010.1
20190421050504 15 7 12.9 16.1 0.00 0.46 0.00 47 1010.1
20190421050005 15 26 12.9 19.3 0.00 0.46 0.00 47 1010.1
20190421045504 15 57 19.3 19.3 0.00 0.46 0.00 47 1010.1
20190421045004 15 52 9.7 12.9 0.00 0.46 0.00 47 1010.1
20190421044505 15 13 9.7 17.7 0.00 0.46 0.00 47 1010.1
20190421044004 15 1 14.5 19.3 0.00 0.46 0.00 47 1010.1
20190421043504 15 2 6.4 19.3 0.00 0.46 0.00 47 1010.1
20190421043004 15 61 9.7 20.9 0.00 0.46 0.00 46 1010.1
20190421042504 15 69 3.2 20.9 0.00 0.46 0.00 46 1010.1
20190421042005 15 66 16.1 19.3 0.00 0.46 0.00 46 1010.1
20190421041504 15 61 12.9 19.3 0.00 0.46 0.00 46 1010.1
20190421041004 15 88 9.7 17.7 0.00 0.46 0.00 47 1011.1
20190421040504 15 79 4.8 17.7 0.00 0.46 0.00 47 1011.1
20190421040005 15 65 6.4 9.7 0.00 0.46 0.00 47 1011.1
20190421035504 15 33 6.4 14.5 0.00 0.46 0.00 47 1011.1
20190421035004 15 47 3.2 14.5 0.00 0.46 0.00 47 1011.1
20190421034504 15 66 9.7 14.5 0.00 0.46 0.00 47 1011.1
20190421034004 15 43 9.7 14.5 0.00 0.46 0.00 46 1011.1
20190421033504 15 49 4.8 16.1 0.00 0.46 0.00 46 1011.1
20190421033004 15 23 16.1 20.9 0.00 0.46 0.00 46 1011.1
20190421032504 15 14 12.9 20.9 0.00 0.46 0.00 46 1011.1
20190421032004 15 49 9.7 14.5 0.00 0.46 0.00 46 1011.1
20190421031504 15 20 8.0 14.5 0.00 0.46 0.00 46 1011.1
20190421031004 15 17 8.0 12.9 0.00 0.46 0.00 46 1011.1
20190421030504 15 332 6.4 14.5 0.00 0.46 0.00 46 1011.1
20190421030004 15 1 6.4 14.5 0.00 0.46 0.00 46 1011.1
20190421025504 15 27 6.4 9.7 0.00 0.46 0.00 46 1011.1
20190421025005 15 62 8.0 9.7 0.00 0.46 0.00 46 1011.1
20190421024504 15 65 6.4 9.7 0.00 0.46 0.00 47 1011.1
20190421024005 15 69 3.2 12.9 0.00 0.46 0.00 47 1011.1
20190421023504 15 83 12.9 12.9 0.00 0.46 0.00 47 1011.1
20190421023005 15 37 9.7 9.7 0.00 0.46 0.00 47 1011.1
20190421022504 15 4 9.7 17.7 0.00 0.46 0.00 47 1012.1
20190421022004 15 356 4.8 17.7 0.00 0.46 0.00 47 1012.1
20190421021504 15 26 4.8 9.7 0.00 0.46 0.00 46 1012.1
20190421021004 15 67 9.7 14.5 0.00 0.46 0.00 46 1012.1
20190421020504 15 61 8.0 14.5 0.00 0.46 0.00 46 1012.1
20190421020010 15 55 11.3 11.3 0.00 0.46 0.00 46 1012.1
20190421015504 15 352 9.7 14.5 0.00 0.46 0.00 46 1012.1
20190421015004 15 330 6.4 14.5 0.00 0.46 0.00 46 1012.1
20190421014503 15 12 9.7 11.3 0.00 0.46 0.00 46 1012.1
20190421014004 15 18 8.0 14.5 0.00 0.46 0.00 46 1012.1
20190421013504 15 309 1.6 16.1 0.00 0.46 0.00 46 1012.1
20190421013005 15 287 4.8 16.1 0.00 0.46 0.00 46 1012.1
20190421012504 15 23 4.8 12.9 0.00 0.46 0.00 46 1012.1
20190421012004 15 14 12.9 12.9 0.00 0.46 0.00 46 1012.1
20190421011504 15 27 12.9 12.9 0.00 0.46 0.00 46 1012.1
20190421011004 15 21 9.7 16.1 0.00 0.46 0.00 46 1013.1
20190421010504 15 21 9.7 16.1 0.00 0.46 0.00 46 1013.1
20190421010004 15 13 4.8 11.3 0.00 0.46 0.00 46 1013.1
20190421005504 15 17 11.3 17.7 0.00 0.46 0.00 46 1013.1
20190421005004 15 37 9.7 17.7 0.00 0.46 0.00 46 1013.1
20190421004504 15 52 12.9 12.9 0.00 0.46 0.00 46 1013.1
20190421004004 15 39 9.7 12.9 0.00 0.46 0.00 46 1013.1
20190421003504 15 33 8.0 12.9 0.00 0.46 0.00 45 1013.1
20190421003005 15 54 6.4 8.0 0.00 0.46 0.00 45 1013.1
20190421002504 15 65 3.2 8.0 0.00 0.46 0.00 45 1013.1
20190421002004 15 44 8.0 9.7 0.00 0.46 0.00 45 1013.1
20190421001504 15 19 6.4 12.9 0.00 0.46 0.00 46 1013.1
20190421001009 15 357 9.7 12.9 0.00 0.46 0.00 46 1014.1
20190421000514 15 20 6.4 12.9 0.00 0.46 0.00 46 1014.1
20190421000005 15 74 11.3 16.1 0.00 0.46 0.00 46 1014.1
20190420235504 15 103 16.1 16.1 0.00 0.46 0.00 46 1014.1
20190420235005 15 85 4.8 17.7 0.00 0.46 0.00 46 1014.1
20190420234505 15 16 4.8 17.7 0.00 0.46 0.00 46 1014.1
20190420234004 15 336 14.5 20.9 0.00 0.46 0.00 46 1014.1
20190420233504 15 318 20.9 20.9 0.00 0.46 0.00 46 1014.1
20190420233004 15 95 6.4 20.9 0.00 0.46 0.00 47 1014.1
20190420232504 15 36 20.9 20.9 0.00 0.46 0.00 47 1014.1
20190420232004 15 345 4.8 19.3 0.00 0.46 0.00 47 1014.1
20190420231504 15 3 12.9 17.7 0.00 0.46 0.00 47 1014.1
20190420231004 15 11 14.5 16.1 0.00 0.46 0.00 47 1014.1
20190420230504 15 331 12.9 17.7 0.00 0.46 0.00 47 1014.1
20190420230004 15 354 8.0 17.7 0.00 0.46 0.00 47 1014.1
20190420225504 15 19 9.7 14.5 0.00 0.46 0.00 47 1014.1
20190420225005 15 341 14.5 16.1 0.00 0.46 0.00 47 1014.1
20190420224504 15 5 9.7 17.7 0.00 0.46 0.00 47 1014.1
20190420224004 15 6 8.0 19.3 0.00 0.46 0.00 48 1014.1
20190420223504 15 4 14.5 19.3 0.00 0.46 0.00 48 1014.1
20190420223004 15 23 17.7 17.7 0.00 0.46 0.00 48 1014.1
20190420222504 15 29 9.7 17.7 0.00 0.46 0.00 49 1014.1
20190420222005 15 10 12.9 20.9 0.00 0.46 0.00 50 1014.1
20190420221504 15 349 4.8 20.9 0.00 0.46 0.00 50 1014.1
20190420221004 15 3 12.9 17.7 0.00 0.46 0.00 50 1014.1
20190420220504 15 9 11.3 17.7 0.00 0.46 0.00 50 1014.1
20190420220004 14 331 9.7 20.9 0.00 0.46 0.00 50 1014.1
20190420215504 14 316 20.9 20.9 0.46 0.46 0.46 50 1014.1
20190420215004 14 313 9.7 22.5 0.46 0.46 0.46 51 1014.1
20190420214504 14 326 12.9 22.5 0.46 0.46 0.46 51 1014.1
20190420214004 14 316 22.5 22.5 0.46 0.46 0.46 51 1015.1
20190420213504 14 327 4.8 20.9 0.46 0.46 0.46 51 1015.1
20190420213005 14 337 19.3 19.3 0.46 0.46 0.46 51 1015.1
20190420212504 14 334 12.9 17.7 0.46 0.46 0.46 51 1015.1
20190420212004 14 349 11.3 37.0 0.46 0.46 0.46 51 1015.1
20190420211504 14 1 4.8 37.0 0.46 0.46 0.46 51 1015.1
20190420211005 14 346 17.7 17.7 0.46 0.46 0.46 52 1015.1
20190420210504 14 18 12.9 19.3 0.46 0.46 0.46 52 1015.1
20190420210004 14 12 19.3 19.3 0.46 0.46 0.46 52 1015.1
20190420205504 14 350 8.0 20.9 0.00 0.00 0.00 52 1015.1
20190420205004 14 332 20.9 20.9 0.00 0.00 0.00 53 1015.1
20190420204508 14 296 6.4 16.1 0.00 0.00 0.00 53 1015.1
20190420204004 14 338 16.1 16.1 0.00 0.00 0.00 54 1015.1
20190420203504 14 335 8.0 17.7 0.00 0.00 0.00 54 1015.1
20190420203004 14 336 6.4 17.7 0.00 0.00 0.00 54 1015.1
20190420202504 14 332 12.9 17.7 0.00 0.00 0.00 54 1016.2
20190420202004 14 334 11.3 16.1 0.00 0.00 0.00 55 1016.2
20190420201504 14 333 9.7 14.5 0.00 0.00 0.00 55 1016.2
20190420201004 14 325 9.7 14.5 0.00 0.00 0.00 55 1015.1
20190420200504 14 319 6.4 20.9 0.00 0.00 0.00 56 1015.1
20190420200004 13 322 8.0 20.9 0.00 0.00 0.00 56 1015.1
20190420195505 13 350 4.8 20.9 0.00 0.00 0.00 56 1016.2
20190420195004 13 340 8.0 20.9 0.00 0.00 0.00 56 1016.2
20190420194504 13 334 12.9 19.3 0.00 0.00 0.00 57 1016.2
20190420194004 13 349 12.9 12.9 0.00 0.00 0.00 57 1015.1
20190420193504 13 331 6.4 29.0 0.00 0.00 0.00 57 1015.1
20190420193004 13 318 12.9 30.6 0.00 0.00 0.00 57 1015.1
20190420192504 14 306 12.9 30.6 0.00 0.00 0.00 57 1015.1
20190420192005 14 311 17.7 19.3 0.00 0.00 0.00 56 1015.1
20190420191504 14 318 17.7 19.3 0.00 0.00 0.00 56 1015.1
20190420191004 14 333 9.7 14.5 0.00 0.00 0.00 56 1016.2
20190420190504 14 319 8.0 12.9 0.00 0.00 0.00 56 1016.2
20190420190004 14 311 12.9 16.1 0.00 0.00 0.00 55 1016.2
20190420185505 14 344 9.7 20.9 0.00 0.00 0.00 54 1016.2
20190420185004 15 359 6.4 20.9 0.00 0.00 0.00 54 1016.2
20190420184504 15 348 4.8 17.7 0.00 0.00 0.00 53 1016.2
20190420184004 15 329 12.9 14.5 0.00 0.00 0.00 54 1015.1
20190420183504 15 340 6.4 17.7 0.00 0.00 0.00 54 1015.1
20190420183004 15 333 6.4 17.7 0.00 0.00 0.00 54 1015.1
20190420182504 15 328 14.5 14.5 0.00 0.00 0.00 54 1015.1
20190420182004 15 341 9.7 17.7 0.00 0.00 0.00 53 1015.1
20190420181504 15 344 11.3 17.7 0.00 0.00 0.00 54 1015.1
20190420181004 15 358 14.5 17.7 0.00 0.00 0.00 54 1015.1
20190420180504 15 32 14.5 17.7 0.00 0.00 0.00 54 1015.1
20190420180004 15 24 9.7 16.1 0.00 0.00 0.00 54 1015.1
20190420175504 15 14 8.0 16.1 0.00 0.00 0.00 53 1015.1
20190420175005 15 30 4.8 17.7 0.00 0.00 0.00 52 1015.1
20190420174504 15 354 17.7 17.7 0.00 0.00 0.00 52 1015.1
20190420174004 15 342 16.1 17.7 0.00 0.00 0.00 51 1015.1
20190420173504 15 342 14.5 17.7 0.00 0.00 0.00 51 1015.1
20190420173005 15 339 6.4 14.5 0.00 0.00 0.00 51 1015.1
20190420172504 15 11 9.7 9.7 0.00 0.00 0.00 50 1016.2
20190420172004 15 24 4.8 9.7 0.00 0.00 0.00 48 1016.2
20190420171504 16 64 4.8 17.7 0.00 0.00 0.00 45 1016.2
20190420171004 16 61 17.7 17.7 0.00 0.00 0.00 44 1015.1
20190420170504 16 51 9.7 14.5 0.00 0.00 0.00 43 1015.1
20190420170009 16 96 9.7 17.7 0.00 0.00 0.00 42 1015.1
20190420165504 16 95 9.7 17.7 0.00 0.00 0.00 40 1016.2
20190420165005 16 61 17.7 17.7 0.00 0.00 0.00 40 1016.2
20190420164504 16 47 3.2 6.4 0.00 0.00 0.00 41 1016.2
20190420164004 16 65 3.2 8.0 0.00 0.00 0.00 41 1016.2
20190420163504 16 39 4.8 12.9 0.00 0.00 0.00 40 1016.2
20190420163004 16 43 9.7 12.9 0.00 0.00 0.00 40 1016.2
20190420162504 16 66 6.4 6.4 0.00 0.00 0.00 40 1016.2
20190420162004 16 39 4.8 16.1 0.00 0.00 0.00 40 1016.2
20190420161504 16 80 16.1 16.1 0.00 0.00 0.00 41 1016.2
20190420161004 16 89 16.1 16.1 0.00 0.00 0.00 41 1016.2
20190420160504 16 65 3.2 14.5 0.00 0.00 0.00 42 1016.2
20190420160005 16 71 4.8 14.5 0.00 0.00 0.00 42 1016.2
20190420155504 16 60 9.7 12.9 0.00 0.00 0.00 41 1016.2
20190420155004 17 24 6.4 12.9 0.00 0.00 0.00 40 1016.2
20190420154504 17 59 6.4 12.9 0.00 0.00 0.00 40 1016.2
20190420154005 17 102 6.4 17.7 0.00 0.00 0.00 40 1016.2
20190420153503 17 106 17.7 17.7 0.00 0.00 0.00 40 1016.2
20190420153004 17 80 14.5 16.1 0.00 0.00 0.00 40 1016.2
20190420152504 17 44 0.0 24.1 0.00 0.00 0.00 40 1016.2
20190420152004 17 68 6.4 24.1 0.00 0.00 0.00 40 1016.2
20190420151504 17 89 6.4 17.7 0.00 0.00 0.00 39 1016.2
20190420151004 17 93 6.4 17.7 0.00 0.00 0.00 39 1016.2
20190420150504 17 55 8.0 20.9 0.00 0.00 0.00 39 1016.2
20190420150005 17 39 16.1 20.9 0.00 0.00 0.00 39 1016.2
20190420145504 17 65 8.0 20.9 0.00 0.00 0.00 39 1016.2
20190420145004 17 78 20.9 20.9 0.00 0.00 0.00 39 1016.2
20190420144504 17 72 8.0 16.1 0.00 0.00 0.00 38 1016.2
20190420144005 17 70 6.4 16.1 0.00 0.00 0.00 38 1016.2
20190420143504 17 78 4.8 14.5 0.00 0.00 0.00 38 1016.2
20190420143004 17 128 9.7 14.5 0.00 0.00 0.00 38 1016.2
20190420142504 17 113 12.9 14.5 0.00 0.00 0.00 39 1016.2
20190420142005 17 66 4.8 19.3 0.00 0.00 0.00 39 1016.2
20190420141504 17 52 19.3 19.3 0.00 0.00 0.00 38 1016.2
20190420141004 17 84 14.5 17.7 0.00 0.00 0.00 38 1017.2
20190420140504 17 85 16.1 17.7 0.00 0.00 0.00 38 1017.2
20190420140004 17 90 8.0 17.7 0.00 0.00 0.00 38 1017.2
20190420135504 17 88 6.4 17.7 0.00 0.00 0.00 38 1017.2
20190420135004 17 84 9.7 11.3 0.00 0.00 0.00 37 1017.2
20190420134504 17 58 4.8 9.7 0.00 0.00 0.00 37 1017.2
20190420134004 17 64 4.8 16.1 0.00 0.00 0.00 37 1017.2
20190420133504 18 75 3.2 20.9 0.00 0.00 0.00 37 1017.2
20190420133005 18 81 17.7 22.5 0.00 0.00 0.00 37 1017.2
20190420132504 18 92 14.5 22.5 0.00 0.00 0.00 37 1017.2
20190420132004 18 61 14.5 14.5 0.00 0.00 0.00 38 1017.2
20190420131504 18 85 4.8 17.7 0.00 0.00 0.00 38 1017.2
20190420131005 18 95 9.7 17.7 0.00 0.00 0.00 38 1017.2
20190420130504 18 97 9.7 12.9 0.00 0.00 0.00 38 1017.2
20190420130005 18 95 9.7 12.9 0.00 0.00 0.00 38 1017.2